Time,TemperatureF,DewpointF,PressureIn,WindDirection,WindDirectionDegrees,WindSpeedMPH,WindSpeedGustMPH,Humidity,HourlyPrecipIn,Conditions,Clouds,dailyrainin,SoftwareType,DateUTC
2013-02-26 00:01:00,77.0,63.0,30.07,NNE,30,25.0,32.0,61,-99.99,,,-99.99,,2013-02-26 00:01:00,
2013-02-26 00:11:00,77.0,63.0,30.06,NNE,20,15.0,28.0,61,-99.99,,,-99.99,,2013-02-26 00:11:00,
2013-02-26 00:21:00,75.0,63.0,30.06,NE,50,23.0,27.0,64,-99.99,,,-99.99,,2013-02-26 00:21:00,
2013-02-26 00:31:00,75.0,63.0,30.07,ENE,70,21.0,29.0,64,-99.99,,,-99.99,,2013-02-26 00:31:00,
2013-02-26 00:41:00,75.0,63.0,30.06,ENE,60,12.0,28.0,64,-99.99,,,-99.99,,2013-02-26 00:41:00,
2013-02-26 00:51:00,75.0,63.0,30.06,NE,50,20.0,28.0,64,-99.99,,,-99.99,,2013-02-26 00:51:00,
2013-02-26 01:01:00,75.0,63.0,30.06,NE,50,20.0,28.0,64,-99.99,,,-99.99,,2013-02-26 01:01:00,
2013-02-26 01:11:00,73.0,63.0,30.07,ENE,60,22.0,25.0,68,0.00,,,-99.99,,2013-02-26 01:11:00,
2013-02-26 01:21:00,73.0,64.0,30.07,NE,50,12.0,24.0,73,0.00,,,-99.99,,2013-02-26 01:21:00,
2013-02-26 01:31:00,73.0,64.0,30.07,NE,40,22.0,24.0,73,0.00,,,-99.99,,2013-02-26 01:31:00,
2013-02-26 01:41:00,73.0,64.0,30.07,NE,40,16.0,24.0,73,0.00,,,-99.99,,2013-02-26 01:41:00,
2013-02-26 01:51:00,72.0,63.0,30.06,NE,40,18.0,27.0,73,-99.99,,,-99.99,,2013-02-26 01:51:00,
2013-02-26 02:01:00,72.0,63.0,30.06,NE,40,18.0,27.0,73,-99.99,,,-99.99,,2013-02-26 02:01:00,
2013-02-26 02:11:00,73.0,64.0,30.06,NE,40,15.0,22.0,73,0.00,,,-99.99,,2013-02-26 02:11:00,
2013-02-26 02:21:00,72.0,63.0,30.05,ENE,60,16.0,32.0,73,0.00,,,-99.99,,2013-02-26 02:21:00,
2013-02-26 02:31:00,73.0,63.0,30.05,ENE,60,23.0,27.0,68,0.00,,,-99.99,,2013-02-26 02:31:00,
2013-02-26 02:41:00,73.0,63.0,30.05,NNE,30,25.0,30.0,68,0.00,,,-99.99,,2013-02-26 02:41:00,
2013-02-26 02:51:00,73.0,63.0,30.05,ENE,60,30.0,30.0,68,-99.99,,,-99.99,,2013-02-26 02:51:00,
2013-02-26 03:01:00,73.0,63.0,30.05,ENE,60,30.0,30.0,68,-99.99,,,-99.99,,2013-02-26 03:01:00,
2013-02-26 03:11:00,73.0,63.0,30.05,ENE,60,18.0,30.0,68,-99.99,,,-99.99,,2013-02-26 03:11:00,
2013-02-26 03:21:00,73.0,63.0,30.05,NE,50,14.0,33.0,68,-99.99,,,-99.99,,2013-02-26 03:21:00,
2013-02-26 03:31:00,73.0,63.0,30.05,ENE,60,21.0,36.0,68,-99.99,,,-99.99,,2013-02-26 03:31:00,
2013-02-26 03:41:00,73.0,63.0,30.05,ENE,60,31.0,32.0,68,-99.99,,,-99.99,,2013-02-26 03:41:00,
2013-02-26 03:51:00,73.0,63.0,30.05,NE,50,24.0,36.0,68,-99.99,,,-99.99,,2013-02-26 03:51:00,
2013-02-26 04:01:00,73.0,63.0,30.05,NE,50,24.0,36.0,68,-99.99,,,-99.99,,2013-02-26 04:01:00,
2013-02-26 04:11:00,72.0,63.0,30.06,ENE,60,28.0,31.0,73,0.00,,,-99.99,,2013-02-26 04:11:00,
2013-02-26 04:21:00,72.0,61.0,30.07,NE,50,18.0,31.0,68,0.00,,,-99.99,,2013-02-26 04:21:00,
2013-02-26 04:31:00,72.0,63.0,30.07,ENE,60,25.0,32.0,73,0.00,,,-99.99,,2013-02-26 04:31:00,
2013-02-26 04:42:00,72.0,63.0,30.07,NE,50,20.0,32.0,73,0.00,,,-99.99,,2013-02-26 04:42:00,
2013-02-26 04:51:00,70.0,61.0,30.08,ENE,60,23.0,31.0,73,-99.99,,,-99.99,,2013-02-26 04:51:00,
2013-02-26 05:01:00,70.0,61.0,30.08,ENE,60,23.0,31.0,73,-99.99,,,-99.99,,2013-02-26 05:01:00,
2013-02-26 05:11:00,70.0,61.0,30.08,NE,50,24.0,29.0,73,-99.99,,,-99.99,,2013-02-26 05:11:00,
2013-02-26 05:21:00,70.0,61.0,30.09,NE,50,15.0,27.0,73,-99.99,,,-99.99,,2013-02-26 05:21:00,
2013-02-26 05:31:00,72.0,63.0,30.10,NE,50,16.0,27.0,73,-99.99,,,-99.99,,2013-02-26 05:31:00,
2013-02-26 05:42:00,72.0,63.0,30.11,NE,50,16.0,23.0,73,-99.99,,,-99.99,,2013-02-26 05:42:00,
2013-02-26 05:52:00,70.0,63.0,30.11,NE,50,16.0,24.0,77,-99.99,,,-99.99,,2013-02-26 05:52:00,
2013-02-26 06:01:00,70.0,63.0,30.11,NE,50,16.0,24.0,77,-99.99,,,-99.99,,2013-02-26 06:01:00,
2013-02-26 06:11:00,70.0,61.0,30.12,NE,40,18.0,25.0,73,-99.99,,,-99.99,,2013-02-26 06:11:00,
2013-02-26 06:21:00,70.0,61.0,30.12,ENE,60,18.0,25.0,73,-99.99,,,-99.99,,2013-02-26 06:21:00,
2013-02-26 06:31:00,70.0,63.0,30.13,NE,50,27.0,30.0,77,-99.99,,,-99.99,,2013-02-26 06:31:00,
2013-02-26 06:41:00,70.0,63.0,30.13,ENE,60,17.0,31.0,77,-99.99,,,-99.99,,2013-02-26 06:41:00,
2013-02-26 06:51:00,70.0,63.0,30.13,ENE,70,22.0,25.0,77,-99.99,,,-99.99,,2013-02-26 06:51:00,
2013-02-26 07:01:00,70.0,63.0,30.13,ENE,70,22.0,25.0,77,-99.99,,,-99.99,,2013-02-26 07:01:00,
2013-02-26 07:11:00,70.0,63.0,30.14,NE,50,24.0,32.0,77,-99.99,,,-99.99,,2013-02-26 07:11:00,
2013-02-26 07:21:00,70.0,61.0,30.15,NE,40,15.0,31.0,73,-99.99,,,-99.99,,2013-02-26 07:21:00,
2013-02-26 07:31:00,68.0,63.0,30.15,NE,50,22.0,32.0,82,-99.99,,,-99.99,,2013-02-26 07:31:00,
2013-02-26 07:41:00,68.0,63.0,30.15,NE,50,17.0,27.0,82,-99.99,,,-99.99,,2013-02-26 07:41:00,
2013-02-26 07:51:00,68.0,63.0,30.15,NE,40,18.0,25.0,82,-99.99,,,-99.99,,2013-02-26 07:51:00,
2013-02-26 08:01:00,68.0,63.0,30.15,NE,40,18.0,25.0,82,-99.99,,,-99.99,,2013-02-26 08:01:00,
2013-02-26 08:11:00,68.0,63.0,30.16,ENE,60,23.0,30.0,82,-99.99,,,-99.99,,2013-02-26 08:11:00,
2013-02-26 08:21:00,68.0,63.0,30.15,NE,40,18.0,29.0,82,-99.99,,,-99.99,,2013-02-26 08:21:00,
2013-02-26 08:31:00,68.0,63.0,30.16,NE,40,21.0,29.0,82,-99.99,,,-99.99,,2013-02-26 08:31:00,
2013-02-26 08:41:00,68.0,63.0,30.16,NNE,30,15.0,29.0,82,-99.99,,,-99.99,,2013-02-26 08:41:00,
2013-02-26 08:51:00,68.0,63.0,30.16,NE,50,20.0,28.0,82,-99.99,,,-99.99,,2013-02-26 08:51:00,
2013-02-26 09:01:00,68.0,63.0,30.16,NE,50,20.0,28.0,82,-99.99,,,-99.99,,2013-02-26 09:01:00,
2013-02-26 09:11:00,68.0,63.0,30.16,NE,50,16.0,28.0,82,-99.99,,,-99.99,,2013-02-26 09:11:00,
2013-02-26 09:21:00,68.0,63.0,30.15,NE,50,15.0,25.0,82,-99.99,,,-99.99,,2013-02-26 09:21:00,
2013-02-26 09:31:00,68.0,63.0,30.15,NNE,30,18.0,25.0,82,-99.99,,,-99.99,,2013-02-26 09:31:00,
2013-02-26 09:42:00,68.0,61.0,30.15,NE,40,15.0,27.0,77,-99.99,,,-99.99,,2013-02-26 09:42:00,
2013-02-26 09:51:00,68.0,61.0,30.15,NE,50,15.0,-999.0,77,-99.99,,,-99.99,,2013-02-26 09:51:00,
2013-02-26 10:01:00,68.0,61.0,30.15,NE,50,15.0,-999.0,77,-99.99,,,-99.99,,2013-02-26 10:01:00,
2013-02-26 10:11:00,68.0,61.0,30.15,NNE,20,17.0,22.0,77,-99.99,,,-99.99,,2013-02-26 10:11:00,
2013-02-26 10:21:00,68.0,63.0,30.15,ENE,60,13.0,22.0,82,-99.99,,,-99.99,,2013-02-26 10:21:00,
2013-02-26 10:31:00,68.0,63.0,30.15,NE,50,14.0,-999.0,82,-99.99,,,-99.99,,2013-02-26 10:31:00,
2013-02-26 10:41:00,68.0,63.0,30.15,NE,50,14.0,22.0,82,-99.99,,,-99.99,,2013-02-26 10:41:00,
2013-02-26 10:51:00,68.0,61.0,30.15,NE,40,15.0,20.0,77,-99.99,,,-99.99,,2013-02-26 10:51:00,
2013-02-26 11:01:00,68.0,61.0,30.15,NE,40,15.0,20.0,77,-99.99,,,-99.99,,2013-02-26 11:01:00,
2013-02-26 11:11:00,68.0,59.0,30.15,ENE,60,20.0,25.0,72,-99.99,,,-99.99,,2013-02-26 11:11:00,
2013-02-26 11:21:00,68.0,59.0,30.14,ENE,60,18.0,24.0,72,-99.99,,,-99.99,,2013-02-26 11:21:00,
2013-02-26 11:31:00,68.0,59.0,30.14,ENE,60,12.0,18.0,72,-99.99,,,-99.99,,2013-02-26 11:31:00,
2013-02-26 11:41:00,68.0,59.0,30.13,ENE,60,20.0,23.0,72,-99.99,,,-99.99,,2013-02-26 11:41:00,
2013-02-26 11:52:00,68.0,59.0,30.13,NE,40,18.0,28.0,72,-99.99,,,-99.99,,2013-02-26 11:52:00,
2013-02-26 12:01:00,68.0,59.0,30.13,NE,40,18.0,28.0,72,-99.99,,,-99.99,,2013-02-26 12:01:00,
2013-02-26 12:11:00,68.0,59.0,30.13,NE,50,17.0,21.0,72,-99.99,,,-99.99,,2013-02-26 12:11:00,
2013-02-26 12:21:00,68.0,59.0,30.12,NE,40,15.0,23.0,72,-99.99,,,-99.99,,2013-02-26 12:21:00,
2013-02-26 12:32:00,68.0,59.0,30.11,NE,50,12.0,23.0,72,-99.99,,,-99.99,,2013-02-26 12:32:00,
2013-02-26 12:41:00,68.0,59.0,30.11,ENE,70,12.0,23.0,72,-99.99,,,-99.99,,2013-02-26 12:41:00,
2013-02-26 12:52:00,68.0,59.0,30.11,NE,40,14.0,21.0,72,-99.99,,,-99.99,,2013-02-26 12:52:00,
2013-02-26 13:01:00,68.0,59.0,30.11,NE,40,14.0,21.0,72,-99.99,,,-99.99,,2013-02-26 13:01:00,
2013-02-26 13:11:00,68.0,59.0,30.11,ENE,70,9.0,17.0,72,-99.99,,,-99.99,,2013-02-26 13:11:00,
2013-02-26 13:21:00,68.0,59.0,30.10,East,80,13.0,24.0,72,-99.99,,,-99.99,,2013-02-26 13:21:00,
2013-02-26 13:31:00,68.0,59.0,30.10,ENE,60,25.0,25.0,72,-99.99,,,-99.99,,2013-02-26 13:31:00,
2013-02-26 13:42:00,68.0,59.0,30.10,NE,40,15.0,25.0,72,-99.99,,,-99.99,,2013-02-26 13:42:00,
2013-02-26 13:51:00,68.0,59.0,30.10,ENE,60,15.0,33.0,72,-99.99,,,-99.99,,2013-02-26 13:51:00,
2013-02-26 14:01:00,68.0,59.0,30.10,ENE,60,15.0,33.0,72,-99.99,,,-99.99,,2013-02-26 14:01:00,
2013-02-26 14:11:00,68.0,59.0,30.10,ENE,60,16.0,30.0,72,-99.99,,,-99.99,,2013-02-26 14:11:00,
2013-02-26 14:21:00,68.0,59.0,30.11,East,80,16.0,25.0,72,-99.99,,,-99.99,,2013-02-26 14:21:00,
2013-02-26 14:31:00,68.0,59.0,30.10,ENE,60,16.0,24.0,72,-99.99,,,-99.99,,2013-02-26 14:31:00,
2013-02-26 14:41:00,68.0,59.0,30.10,NE,50,18.0,24.0,72,-99.99,,,-99.99,,2013-02-26 14:41:00,
2013-02-26 14:52:00,68.0,59.0,30.10,East,80,18.0,23.0,72,-99.99,,,-99.99,,2013-02-26 14:52:00,
2013-02-26 15:01:00,68.0,59.0,30.10,East,80,18.0,23.0,72,-99.99,,,-99.99,,2013-02-26 15:01:00,
2013-02-26 15:11:00,68.0,59.0,30.11,ENE,60,8.0,20.0,72,-99.99,,,-99.99,,2013-02-26 15:11:00,
2013-02-26 15:21:00,68.0,59.0,30.10,NE,50,18.0,22.0,72,-99.99,,,-99.99,,2013-02-26 15:21:00,
2013-02-26 15:31:00,68.0,59.0,30.10,NE,50,18.0,24.0,72,-99.99,,,-99.99,,2013-02-26 15:31:00,
2013-02-26 15:41:00,68.0,59.0,30.10,NE,40,15.0,24.0,72,-99.99,,,-99.99,,2013-02-26 15:41:00,
2013-02-26 15:51:00,68.0,59.0,30.11,ENE,60,22.0,23.0,72,-99.99,,,-99.99,,2013-02-26 15:51:00,
2013-02-26 16:01:00,68.0,59.0,30.11,ENE,60,22.0,23.0,72,-99.99,,,-99.99,,2013-02-26 16:01:00,
2013-02-26 16:11:00,68.0,59.0,30.11,NE,50,17.0,25.0,72,-99.99,,,-99.99,,2013-02-26 16:11:00,
2013-02-26 16:22:00,68.0,59.0,30.11,ENE,60,17.0,27.0,72,-99.99,,,-99.99,,2013-02-26 16:22:00,
2013-02-26 16:31:00,68.0,59.0,30.11,ENE,60,13.0,27.0,72,-99.99,,,-99.99,,2013-02-26 16:31:00,
2013-02-26 16:41:00,68.0,59.0,30.11,NE,40,20.0,22.0,72,-99.99,,,-99.99,,2013-02-26 16:41:00,
2013-02-26 16:51:00,68.0,59.0,30.11,NE,40,16.0,23.0,72,-99.99,,,-99.99,,2013-02-26 16:51:00,
2013-02-26 17:01:00,68.0,59.0,30.11,NE,40,16.0,23.0,72,-99.99,,,-99.99,,2013-02-26 17:01:00,
2013-02-26 17:11:00,68.0,59.0,30.12,NNE,30,13.0,29.0,72,-99.99,,,-99.99,,2013-02-26 17:11:00,
2013-02-26 17:21:00,68.0,59.0,30.12,NE,50,9.0,22.0,72,-99.99,,,-99.99,,2013-02-26 17:21:00,
2013-02-26 17:32:00,68.0,59.0,30.13,ENE,60,15.0,24.0,72,-99.99,,,-99.99,,2013-02-26 17:32:00,
2013-02-26 17:41:00,68.0,59.0,30.13,NE,40,15.0,24.0,72,-99.99,,,-99.99,,2013-02-26 17:41:00,
2013-02-26 17:51:00,68.0,59.0,30.14,ENE,60,14.0,29.0,72,-99.99,,,-99.99,,2013-02-26 17:51:00,
2013-02-26 18:01:00,68.0,59.0,30.14,ENE,60,14.0,29.0,72,-99.99,,,-99.99,,2013-02-26 18:01:00,
2013-02-26 18:12:00,68.0,59.0,30.14,NNE,30,14.0,20.0,72,0.00,,,-99.99,,2013-02-26 18:12:00,
2013-02-26 18:21:00,68.0,61.0,30.14,NE,40,12.0,21.0,77,0.00,,,-99.99,,2013-02-26 18:21:00,
2013-02-26 18:31:00,68.0,61.0,30.14,ENE,60,20.0,33.0,77,0.00,,,-99.99,,2013-02-26 18:31:00,
2013-02-26 18:41:00,68.0,61.0,30.15,East,80,16.0,33.0,77,0.00,,,-99.99,,2013-02-26 18:41:00,
2013-02-26 18:52:00,68.0,61.0,30.15,NNE,30,10.0,18.0,77,0.00,,,-99.99,,2013-02-26 18:52:00,
2013-02-26 19:01:00,68.0,61.0,30.15,NNE,30,10.0,18.0,77,-99.99,,,-99.99,,2013-02-26 19:01:00,
2013-02-26 19:11:00,70.0,63.0,30.15,NE,50,14.0,20.0,77,-99.99,,,-99.99,,2013-02-26 19:11:00,
2013-02-26 19:21:00,72.0,63.0,30.15,NE,40,17.0,23.0,73,-99.99,,,-99.99,,2013-02-26 19:21:00,
2013-02-26 19:31:00,70.0,63.0,30.15,NE,40,16.0,23.0,77,-99.99,,,-99.99,,2013-02-26 19:31:00,
2013-02-26 19:41:00,72.0,63.0,30.15,NE,40,21.0,21.0,73,-99.99,,,-99.99,,2013-02-26 19:41:00,
2013-02-26 19:51:00,70.0,63.0,30.15,NNE,20,13.0,22.0,77,-99.99,,,-99.99,,2013-02-26 19:51:00,
2013-02-26 20:01:00,70.0,63.0,30.15,NNE,20,13.0,22.0,77,-99.99,,,-99.99,,2013-02-26 20:01:00,
2013-02-26 20:11:00,72.0,64.0,30.15,NE,40,16.0,25.0,78,-99.99,,,-99.99,,2013-02-26 20:11:00,
2013-02-26 20:21:00,72.0,63.0,30.16,ENE,60,10.0,21.0,73,-99.99,,,-99.99,,2013-02-26 20:21:00,
2013-02-26 20:31:00,72.0,61.0,30.15,East,80,16.0,28.0,68,-99.99,,,-99.99,,2013-02-26 20:31:00,
2013-02-26 20:41:00,73.0,63.0,30.15,NE,50,23.0,27.0,68,-99.99,,,-99.99,,2013-02-26 20:41:00,
2013-02-26 20:51:00,73.0,61.0,30.15,ENE,60,21.0,29.0,64,-99.99,,,-99.99,,2013-02-26 20:51:00,
2013-02-26 21:01:00,73.0,61.0,30.15,ENE,60,21.0,29.0,64,-99.99,,,-99.99,,2013-02-26 21:01:00,
2013-02-26 21:10:00,73.0,63.0,30.15,NNE,20,15.0,25.0,68,-99.99,,,-99.99,,2013-02-26 21:10:00,
2013-02-26 21:21:00,73.0,61.0,30.15,NE,50,15.0,25.0,64,-99.99,,,-99.99,,2013-02-26 21:21:00,
2013-02-26 21:31:00,72.0,63.0,30.14,NE,40,17.0,28.0,73,-99.99,,,-99.99,,2013-02-26 21:31:00,
2013-02-26 21:41:00,72.0,63.0,30.14,NE,50,28.0,31.0,73,-99.99,,,-99.99,,2013-02-26 21:41:00,
2013-02-26 21:51:00,73.0,63.0,30.14,NE,40,15.0,32.0,68,-99.99,,,-99.99,,2013-02-26 21:51:00,
2013-02-26 22:01:00,73.0,63.0,30.14,NE,40,15.0,32.0,68,-99.99,,,-99.99,,2013-02-26 22:01:00,
2013-02-26 22:11:00,73.0,63.0,30.13,NE,40,13.0,24.0,68,-99.99,,,-99.99,,2013-02-26 22:11:00,
2013-02-26 22:21:00,73.0,61.0,30.13,ENE,70,21.0,24.0,64,-99.99,,,-99.99,,2013-02-26 22:21:00,
2013-02-26 22:31:00,75.0,61.0,30.12,NE,40,16.0,31.0,60,-99.99,,,-99.99,,2013-02-26 22:31:00,
2013-02-26 22:41:00,73.0,61.0,30.12,ENE,60,14.0,32.0,64,-99.99,,,-99.99,,2013-02-26 22:41:00,
2013-02-26 22:51:00,73.0,61.0,30.12,NE,40,12.0,27.0,64,-99.99,,,-99.99,,2013-02-26 22:51:00,
2013-02-26 23:01:00,73.0,61.0,30.12,NE,40,12.0,27.0,64,-99.99,,,-99.99,,2013-02-26 23:01:00,
2013-02-26 23:11:00,73.0,61.0,30.11,East,80,17.0,25.0,64,-99.99,,,-99.99,,2013-02-26 23:11:00,
2013-02-26 23:21:00,75.0,63.0,30.11,NE,40,10.0,27.0,64,-99.99,,,-99.99,,2013-02-26 23:21:00,
2013-02-26 23:31:00,73.0,61.0,30.11,NE,40,17.0,27.0,64,-99.99,,,-99.99,,2013-02-26 23:31:00,
2013-02-26 23:41:00,73.0,63.0,30.11,NE,50,18.0,25.0,68,-99.99,,,-99.99,,2013-02-26 23:41:00,
2013-02-26 23:51:00,75.0,61.0,30.10,NE,50,18.0,36.0,60,-99.99,,,-99.99,,2013-02-26 23:51:00,